N5AET-1 Weather Reports


Display with metric or nautical units.
time (UTC)temp
F
wind
direction
speed
MPH
gust
MPH
rain 1hr
in
rain 24hr
in
rain mn
in
humidity
%
barometer
mb
20260906224535 98 74 5.0 8.0 0.00 0.00 0.00 42 985.6
20260906223535 99 67 1.0 5.0 0.00 0.00 0.00 41 985.7
20260906222515 99 152 2.0 5.0 0.00 0.00 0.00 41 985.7
20260906221515 98 83 1.0 5.0 0.00 0.00 0.00 41 985.8
20260906220515 99 95 3.0 8.0 0.00 0.00 0.00 41 985.7
20260906215515 98 224 0.0 1.0 0.00 0.00 0.00 41 985.6
20260906214515 99 86 3.0 8.0 0.00 0.00 0.00 41 985.7
20260906213515 99 148 2.0 9.0 0.00 0.00 0.00 42 985.9
20260906212515 99 142 2.0 3.0 0.00 0.00 0.00 42 986.0
20260906211515 98 84 0.0 5.0 0.00 0.00 0.00 42 986.0
20260906210515 98 116 2.0 7.0 0.00 0.00 0.00 41 986.2
20260906205535 99 141 4.0 7.0 0.00 0.00 0.00 41 986.4
20260906204535 99 124 3.0 7.0 0.00 0.00 0.00 42 986.6
20260906203515 98 0.0 5.0 0.00 0.00 0.00 43 986.7
20260906202515 99 89 2.0 4.0 0.00 0.00 0.00 42 986.8
20260906201515 98 131 1.0 6.0 0.00 0.00 0.00 43 986.9
20260906200515 98 207 2.0 3.0 0.00 0.00 0.00 44 986.9
20260906195535 97 92 1.0 3.0 0.00 0.00 0.00 44 987.2
20260906194515 98 73 1.0 5.0 0.00 0.00 0.00 45 987.1
20260906193515 97 168 2.0 5.0 0.00 0.00 0.00 46 987.3
20260906192515 96 145 5.0 7.0 0.00 0.00 0.00 47 987.2
20260906191515 96 95 0.0 1.0 0.00 0.00 0.00 48 987.4
20260906190515 96 123 0.0 3.0 0.00 0.00 0.00 48 987.6
20260906185515 96 217 1.0 3.0 0.00 0.00 0.00 49 987.7
20260906184515 96 0.0 1.0 0.00 0.00 0.00 49 987.9
20260906183515 96 143 1.0 5.0 0.00 0.00 0.00 49 988.0
20260906182515 95 121 0.0 5.0 0.00 0.00 0.00 49 988.1
20260906181515 95 129 0.0 6.0 0.00 0.00 0.00 50 988.2
20260906180515 95 116 0.0 3.0 0.00 0.00 0.00 50 988.4
20260906175515 95 137 0.0 4.0 0.00 0.00 0.00 50 988.5
20260906174515 95 120 0.0 1.0 0.00 0.00 0.00 51 988.6
20260906173515 94 236 0.0 1.0 0.00 0.00 0.00 52 988.8
20260906172535 94 0.0 0.0 0.00 0.00 0.00 52 988.9
20260906171515 94 88 2.0 6.0 0.00 0.00 0.00 52 989.0
20260906170555 93 136 0.0 1.0 0.00 0.00 0.00 53 989.1
20260906165515 94 99 0.0 1.0 0.00 0.00 0.00 54 989.2
20260906164515 93 0.0 0.0 0.00 0.00 0.00 55 989.3
20260906163515 93 187 1.0 3.0 0.00 0.00 0.00 56 989.3
20260906162515 91 135 0.0 1.0 0.00 0.00 0.00 59 989.3
20260906161535 91 82 0.0 3.0 0.00 0.00 0.00 59 989.2
20260906160515 91 162 0.0 3.0 0.00 0.00 0.00 59 989.3
20260906155515 90 0.0 1.0 0.00 0.00 0.00 64 989.2
20260906154515 89 0.0 0.0 0.00 0.00 0.00 67 989.2
20260906153517 89 0.0 0.0 0.00 0.00 0.00 69 989.1
20260906152517 88 0.0 2.0 0.00 0.00 0.00 71 989.0
20260906151517 88 0.0 0.0 0.00 0.00 0.00 72 989.0
20260906150517 87 69 0.0 1.0 0.00 0.00 0.00 75 989.0
20260906145517 87 136 0.0 1.0 0.00 0.00 0.00 75 988.9
20260906144517 86 0.0 0.0 0.00 0.00 0.00 75 988.9
20260906143517 86 0.0 2.0 0.00 0.00 0.00 77 988.9
20260906142517 85 148 0.0 1.0 0.00 0.00 0.00 79 989.0
20260906141517 84 0.0 0.0 0.00 0.00 0.00 81 989.1
20260906140517 84 64 1.0 3.0 0.00 0.00 0.00 81 989.0
20260906135517 83 0.0 0.0 0.00 0.00 0.00 84 988.9
20260906134517 82 0.0 0.0 0.00 0.00 0.00 86 988.8
20260906133517 81 0.0 0.0 0.00 0.00 0.00 88 988.8
20260906132517 80 0.0 0.0 0.00 0.00 0.00 90 988.9
20260906131517 79 0.0 0.0 0.00 0.00 0.00 90 988.9
20260906130517 78 0.0 0.0 0.00 0.00 0.00 92 988.8
20260906125517 78 0.0 0.0 0.00 0.00 0.00 93 988.6
20260906124517 77 0.0 0.0 0.00 0.00 0.00 94 988.6
20260906123517 77 0.0 0.0 0.00 0.00 0.00 95 988.6
20260906122517 76 0.0 0.0 0.00 0.00 0.00 95 988.4
20260906121517 76 0.0 0.0 0.00 0.00 0.00 95 988.4
20260906120517 76 0.0 0.0 0.00 0.00 0.00 95 988.3
20260906115517 76 0.0 0.0 0.00 0.00 0.00 95 988.3
20260906114517 76 0.0 0.0 0.00 0.00 0.00 95 988.2
20260906113517 76 0.0 0.0 0.00 0.00 0.00 94 988.0
20260906112537 76 0.0 0.0 0.00 0.00 0.00 93 988.0
20260906111517 76 0.0 0.0 0.00 0.00 0.00 93 988.0
20260906110517 77 0.0 0.0 0.00 0.00 0.00 92 988.0
20260906105517 77 0.0 0.0 0.00 0.00 0.00 92 987.9
20260906104517 77 0.0 0.0 0.00 0.00 0.00 91 987.9
20260906103537 78 0.0 0.0 0.00 0.00 0.00 91 987.9
20260906102517 78 0.0 0.0 0.00 0.00 0.00 91 987.7
20260906101517 78 0.0 0.0 0.00 0.00 0.00 90 987.6
20260906100517 78 0.0 0.0 0.00 0.00 0.00 90 987.6
20260906095557 78 0.0 0.0 0.00 0.00 0.00 90 987.6
20260906094517 78 0.0 0.0 0.00 0.00 0.00 90 987.4
20260906093517 79 0.0 0.0 0.00 0.00 0.00 89 987.3
20260906092517 79 0.0 0.0 0.00 0.00 0.00 87 987.2
20260906091517 80 0.0 0.0 0.00 0.00 0.00 87 987.1
20260906090517 80 0.0 0.0 0.00 0.00 0.00 86 987.0
20260906085537 80 0.0 0.0 0.00 0.00 0.00 86 987.1
20260906084517 80 0.0 0.0 0.00 0.00 0.00 85 987.0
20260906083516 80 133 0.0 1.0 0.00 0.00 0.00 85 987.0
20260906082517 81 0.0 0.0 0.00 0.00 0.00 84 987.0
20260906081517 81 0.0 0.0 0.00 0.00 0.00 84 987.1
20260906080517 81 0.0 0.0 0.00 0.00 0.00 84 987.2
20260906075517 81 0.0 0.0 0.00 0.00 0.00 83 987.2
20260906074517 82 0.0 1.0 0.00 0.00 0.00 82 987.2
20260906073517 82 0.0 0.0 0.00 0.00 0.00 82 987.4
20260906072517 82 0.0 0.0 0.00 0.00 0.00 81 987.2
20260906071517 82 0.0 0.0 0.00 0.00 0.00 81 987.3
20260906070517 82 0.0 0.0 0.00 0.00 0.00 81 987.3
20260906065517 82 0.0 0.0 0.00 0.00 0.00 81 987.3
20260906064517 82 0.0 0.0 0.00 0.00 0.00 80 987.4
20260906063537 82 0.0 0.0 0.00 0.00 0.00 79 987.4
20260906062517 82 0.0 0.0 0.00 0.00 0.00 78 987.4
20260906061537 82 0.0 0.0 0.00 0.00 0.00 77 987.4
20260906060517 82 0.0 0.0 0.00 0.00 0.00 77 987.6
20260906055516 83 0.0 0.0 0.00 0.00 0.00 76 987.5
20260906054516 83 0.0 0.0 0.00 0.00 0.00 75 987.5
20260906053537 83 0.0 0.0 0.00 0.00 0.00 73 987.5
20260906052517 84 0.0 0.0 0.00 0.00 0.00 72 987.4
20260906051517 84 153 1.0 4.0 0.00 0.00 0.00 71 987.5
20260906050517 83 0.0 0.0 0.00 0.00 0.00 72 987.3
20260906045515 84 0.0 0.0 0.00 0.00 0.00 72 987.3
20260906044515 84 0.0 0.0 0.00 0.00 0.00 72 987.4
20260906043515 85 0.0 0.0 0.00 0.00 0.00 71 987.4
20260906042515 85 0.0 0.0 0.00 0.00 0.00 69 987.5
20260906041555 85 0.0 0.0 0.00 0.00 0.00 69 987.5
20260906040515 85 0.0 0.0 0.00 0.00 0.00 68 987.5
20260906035515 86 0.0 0.0 0.00 0.00 0.00 68 987.5
20260906034515 86 0.0 0.0 0.00 0.00 0.00 68 987.4
20260906033515 86 0.0 0.0 0.00 0.00 0.00 67 987.4
20260906032515 86 0.0 0.0 0.00 0.00 0.00 67 987.4
20260906031515 87 0.0 0.0 0.00 0.00 0.00 66 987.5
20260906030535 87 222 0.0 1.0 0.00 0.00 0.00 66 987.4
20260906025555 87 0.0 1.0 0.00 0.00 0.00 65 987.5
20260906024515 87 0.0 0.0 0.00 0.00 0.00 65 987.3
20260906023515 87 0.0 0.0 0.00 0.00 0.00 64 987.2
20260906022515 87 155 0.0 1.0 0.00 0.00 0.00 64 987.1
20260906021515 87 0.0 1.0 0.00 0.00 0.00 63 986.9
20260906020515 87 154 1.0 2.0 0.00 0.00 0.00 62 986.6
20260906015515 87 155 0.0 1.0 0.00 0.00 0.00 62 986.7
20260906014515 88 0.0 0.0 0.00 0.00 0.00 62 986.6
20260906013515 88 146 1.0 3.0 0.00 0.00 0.00 60 986.6
20260906012515 89 0.0 0.0 0.00 0.00 0.00 59 986.3
20260906011515 89 140 0.0 2.0 0.00 0.00 0.00 58 986.1
20260906010515 91 145 0.0 2.0 0.00 0.00 0.00 55 986.0
20260906005515 92 145 2.0 5.0 0.00 0.00 0.00 52 985.9
20260906004515 93 152 2.0 6.0 0.00 0.00 0.00 51 985.7
20260906003515 95 167 1.0 4.0 0.00 0.00 0.00 49 985.7
20260906002515 96 150 2.0 7.0 0.00 0.00 0.00 45 985.6
20260906001515 97 0.0 1.0 0.00 0.00 0.00 44 985.5
20260906000535 97 156 0.0 1.0 0.00 0.00 0.00 43 985.5
20260905235515 98 159 0.0 1.0 0.00 0.00 0.00 43 985.4
20260905234535 98 217 0.0 3.0 0.00 0.00 0.00 43 985.3
20260905233515 98 71 0.0 3.0 0.00 0.00 0.00 41 985.3
20260905232515 98 132 0.0 1.0 0.00 0.00 0.00 41 985.3
20260905231515 99 166 1.0 4.0 0.00 0.00 0.00 40 985.3
20260905230535 98 78 1.0 3.0 0.00 0.00 0.00 40 985.4
20260905225515 98 80 2.0 5.0 0.00 0.00 0.00 41 985.3